Location: Walton
(43.6794°N, 81.3017°W)
Time: 15:17:05
(UTC+00:00)

Meteor 1-5 Rocket - Pass Details

Date: 09 December 2025
Orbit: 788 x 913 km, 81.2° (Epoch: 19 January)

Event Time Altitude Azimuth Distance (km) Brightness Sun altitude
Rises 23:58:05 0° 347° (NNW) 3,299 7.3 -22.7°
Reaches altitude 10° 00:00:27 10° 345° (NNW) 2,373 6.6 -23.1°
Maximum altitude 00:05:46 69° 263° (W) 863 4.3 -24.0°
Drops below altitude 10° 00:11:10 10° 181° (S) 2,415 6.7 -25.0°
Sets 00:13:35 0° 179° (S) 3,362 7.4 -25.4°
